Terminal Aerodrome Forecast
Issued by NWS

Home | Current Version | Previous Version | Text Only | Print | Product List | Glossary On
Versions: 1 2 3 4 5 6 7 8 9 10 11 12 13 14 15 16 17 18 19 20 21 22 23 24 25 26 27 28 29 30 31 32 33 34 35 36 37 38 39 40 41 42 43 44 45 46 47 48 49 50
000
FTUS45 KBOU 222237 AAC
TAFBJC
TAF AMD
KBJC 222237Z 2223/2318 25014G25KT P6SM FEW090 BKN150 BKN200
     FM230000 35012KT P6SM FEW080 BKN150 BKN200
     FM230200 29011G18KT P6SM FEW080 BKN140
     FM230600 31010G20KT P6SM SCT060 BKN100
     FM231500 30020G35KT P6SM SCT060 BKN100=

USA.gov is the U.S. government's official web portal to all federal, state and local government web resources and services.